Flight Track Log - Related Links

Times and Time Zones

All times are in EDT time to prevent confusion due to time zone crossing. See the FIV571 flight status page for this flight to view local times or setup timezone preferences in your user account.

Time Position Orientation Groundspeed Altitude Reporting Facility
EDT Latitude Longitude Course Direction KTS MPH feet Rate Location/Type
07:53PM 32.7389 -117.2211 286° West 188 216 2,100  Level Los Angeles Center
07:54PM 32.7581 -117.3028 286° West 247 284 5,700 3,823 Climbing Los Angeles Center
07:55PM 32.6953 -117.3264 198° South 270 311 10,000 3,145 Climbing Los Angeles Center
07:56PM 32.6467 -117.2433 125° Southeast 306 352 12,200 1,984 Climbing Los Angeles Center
07:57PM 32.6292 -117.1036 98° East 351 404 14,100 1,645 Climbing Los Angeles Center
07:58PM 32.6103 -116.9769 100° East 380 437 15,600 1,452 Climbing Los Angeles Center
07:59PM 32.6233 -116.8461 83° East 398 458 17,100 1,403 Climbing Los Angeles Center
08:00PM 32.6367 -116.7150 83° East 403 464 18,500 1,452 Climbing Los Angeles Center
08:01PM 32.6508 -116.5772 83° East 419 482 20,100 1,584 Climbing Los Angeles Center
08:02PM 32.6653 -116.4114 84° East 430 495 21,800 1,296 Climbing Los Angeles Center
08:03PM 32.6786 -116.2683 84° East 443 510 22,800 968 Climbing Los Angeles Center
08:04PM 32.6925 -116.1222 84° East 451 519 23,800 968 Climbing Los Angeles Center
08:05PM 32.7064 -115.9733 84° East 459 528 24,800 1,065 Climbing Los Angeles Center
08:06PM 32.7236 -115.7931 83° East 462 532 26,000 1,016 Climbing Los Angeles Center
08:07PM 32.7369 -115.6403 84° East 464 534 26,900 484 Climbing Los Angeles Center
08:08PM 32.7497 -115.4836 84° East 473 544 27,000 48 Climbing Los Angeles Center
08:09PM 32.7539 -115.3289 88° East 473 544 27,000  Level Los Angeles Center
08:10PM 32.7592 -115.1814 88° East 457 526 27,000  Level Los Angeles Center
08:11PM 32.7625 -115.0322 88° East 453 521 27,000  Level Los Angeles Center
08:12PM 32.7683 -114.8522 88° East 454 522 27,000  Level Los Angeles Center
08:13PM 32.7697 -114.7064 89° East 446 513 27,000  Level Los Angeles Center
08:14PM 32.7722 -114.5603 89° East 443 510 27,000  Level Los Angeles Center
08:15PM 32.7758 -114.4136 88° East 444 511 27,000 -48 Level Los Angeles Center
08:16PM 32.7761 -114.2647 90° East 448 516 26,900 -960 Descending Los Angeles Center
08:17PM 32.7772 -114.0861 90° East 451 519 25,000 -919 Descending Los Angeles Center
08:18PM 32.7814 -113.9433 88° East 440 506 25,000 -97 Level Los Angeles Center
08:19PM 32.8033 -113.8022 79° East 434 499 24,800 -484 Descending Los Angeles Center
08:20PM 32.8378 -113.6694 73° East 420 483 24,000 -490 Descending Los Angeles Center
08:21PM 32.8792 -113.6008 54° Northeast 425 489 24,000 -612 Level Albuquerque Center
08:22PM 32.9567 -113.5006 47° Northeast 416 479 23,000 -1,210 Descending Albuquerque Center
08:23PM 33.0331 -113.3953 49° Northeast 416 479 21,500 -1,452 Descending Albuquerque Center
08:24PM 33.1058 -113.2967 49° Northeast 402 463 20,000 -1,561 Descending Albuquerque Center
08:25PM 33.1747 -113.2044 48° Northeast 381 438 18,300 -1,854 Descending Albuquerque Center
08:26PM 33.2525 -113.0986 49° Northeast 358 412 16,200 -1,597 Descending Albuquerque Center
08:27PM 33.2789 -112.9942 73° East 342 394 15,000 -581 Descending Albuquerque Center
08:28PM 33.2783 -112.8828 90° East 335 386 15,000  Level Albuquerque Center
08:29PM 33.2817 -112.7717 88° East 336 387 15,000 -146 Level Albuquerque Center
08:30PM 33.2828 -112.6603 89° East 335 386 14,700 -871 Descending Albuquerque Center
08:31PM 33.2872 -112.5592 87° East 327 376 13,200 -1,645 Descending Albuquerque Center
08:32PM 33.2897 -112.4383 89° East 308 354 11,300 -1,161 Descending Albuquerque Center
08:33PM 33.2925 -112.3419 88° East 295 339 10,800 -780 Descending Albuquerque Center
08:34PM 33.3003 -112.2556 84° East 269 310 9,700 -871 Descending Albuquerque Center
08:36PM 33.3050 -112.1714 86° East 258 297 9,000 -387 Descending Albuquerque Center
08:37PM 33.3125 -112.0878 84° East 255 293 8,900 -732 Descending Albuquerque Center
08:38PM 33.3342 -112.0081 72° East 252 290 7,500 -1,073 Descending Albuquerque Center
08:39PM 33.3475 -111.9192 80° East 223 257 6,700 -976 Descending Albuquerque Center
08:40PM 33.3447 -111.8497 93° East 211 243 5,500 -1,113 Descending Albuquerque Center
08:41PM 33.3769 -111.8125 44° Northeast 201 231 4,400 -1,065 Descending Albuquerque Center
08:42PM 33.4119 -111.8594 312° West 200 230 3,300 -1,043 Descending Albuquerque Center
08:42PM 33.4333 -111.8833 317° Northwest 174 200 2,800 -791 Descending Phoenix TRACON
08:43PM 33.4333 -111.9500 270° West 165 190 2,100 -658 Descending Phoenix TRACON
08:45PM 33.4283 -112.0197 265° West 150 173 1,100 -638 Descending Albuquerque Center

Login

Don't have an account? Register now (free) for customized features, flight alerts, and more!